Grayling, MI

7:31 AM EDT on May 23, 2017 (GMT -0400)
Grayling

Weather History for KGOV - March, 2014

Change the Weather History Date:

Thursday, March 27, 2014

  Actual Average (KHTL) Record (KHTL)
Temperature  
Mean Temperature 30 °F -  
Max Temperature 35 °F 44 °F 77 °F (1945)
Min Temperature 25 °F 23 °F -7 °F (1947)
Degree Days  
Heating Degree Days 35    
Moisture  
Dew Point 26 °F    
Average Humidity 84    
Maximum Humidity 100    
Minimum Humidity 55    
Precipitation  
Precipitation 0.00 in - - ()
Sea Level Pressure  
Sea Level Pressure 29.81 in    
Wind  
Wind Speed 8 mph (SSE)    
Max Wind Speed 15 mph    
Max Gust Speed 20 mph    
Visibility 6 miles    
Events Rain , Snow    
Averages and records for this station are not official NWS values.
T = Trace of Precipitation, MM = Missing Value Source: NWS Daily Summary

Daily Weather History Graph

Daily Weather History Graph

Search for Another Location

Airport or City:

Trip Planner

Search our weather history database for the weather conditions in past years. The results will help you decide how hot, cold, wet, or windy it might be!

Date:

Astronomy

Mar. 27, 2014 Rise Set
Actual Time 7:29 AM EDT 8:00 PM EDT
Civil Twilight 6:59 AM EDT 8:29 PM EDT
Nautical Twilight 6:25 AM EDT 9:04 PM EDT
Astronomical Twilight 5:49 AM EDT 9:40 PM EDT
Moon 5:27 AM EDT (3/27) 4:39 PM EDT (3/27)
Length of Visible Light 13h 29m
Length of Day
12h 31m
Waning Crescent, 13% of the Moon is Illuminated
Mar 27
Waning Crescent
Mar 30
New
Apr 7
First Quarter
Apr 15
Full
Apr 22
Last Quarter

Hourly Weather History & Observations

Time (EDT) Temp. Windchill Dew Point Humidity Pressure Visibility Wind Dir Wind Speed Gust Speed Precip Events Conditions
12:15 AM 25.5 °F 17.8 °F 11.8 °F 56% 30.06 in 10.0 mi South 6.9 mph - N/A   Overcast
12:35 AM 25.5 °F 19.9 °F 11.5 °F 55% 30.05 in 10.0 mi SSE 4.6 mph - N/A   Overcast
12:55 AM 25.5 °F 18.7 °F 12.0 °F 57% 30.04 in 10.0 mi South 5.8 mph - N/A   Overcast
1:15 AM 25.5 °F 19.9 °F 12.0 °F 57% 30.04 in 10.0 mi South 4.6 mph - N/A   Overcast
1:35 AM 25.5 °F 16.2 °F 13.1 °F 59% 30.03 in 7.0 mi SSE 9.2 mph 18.4 mph N/A Snow Light Snow
1:55 AM 25.5 °F 17.8 °F 13.6 °F 61% 30.04 in 10.0 mi South 6.9 mph - N/A   Overcast
2:15 AM 27.5 °F 20.2 °F 16.2 °F 62% 30.03 in 10.0 mi SSE 6.9 mph - N/A   Overcast
2:35 AM 28.0 °F 20.8 °F 16.3 °F 62% 30.03 in 10.0 mi SSE 6.9 mph - N/A   Overcast
2:55 AM 28.0 °F 19.3 °F 16.9 °F 63% 30.02 in 7.0 mi South 9.2 mph - N/A Snow Light Snow
3:15 AM 25.5 °F 18.7 °F 21.6 °F 85% 30.01 in 0.8 mi South 5.8 mph - N/A Snow Snow
3:35 AM 25.5 °F 18.7 °F 23.9 °F 94% 30.00 in 1.2 mi SSE 5.8 mph - N/A Snow Light Snow
3:55 AM 25.3 °F 13.6 °F 23.7 °F 94% 29.99 in 1.5 mi SSE 13.8 mph 17.3 mph N/A Snow Light Snow
4:15 AM 25.5 °F 16.9 °F 23.9 °F 94% 29.99 in 2.0 mi SSE 8.1 mph - N/A Snow Light Snow
4:35 AM 25.5 °F 17.8 °F 23.9 °F 94% 29.97 in 2.0 mi SSE 6.9 mph - N/A Snow Light Snow
4:55 AM 25.5 °F 17.8 °F 22.8 °F 89% 29.96 in 5.0 mi SSE 6.9 mph - N/A Snow Light Snow
5:15 AM 28.0 °F 20.0 °F 22.8 °F 81% 29.95 in 4.0 mi South 8.1 mph - N/A Snow Light Snow
5:35 AM 28.0 °F 20.0 °F 21.2 °F 76% 29.94 in 7.0 mi SSE 8.1 mph - N/A   Overcast
5:55 AM 28.0 °F 18.6 °F 21.9 °F 78% 29.93 in 10.0 mi South 10.4 mph - N/A   Overcast
6:15 AM 28.0 °F 20.0 °F 22.5 °F 80% 29.93 in 10.0 mi SSE 8.1 mph - N/A   Overcast
6:35 AM 28.0 °F 20.0 °F 21.6 °F 77% 29.92 in 10.0 mi SSE 8.1 mph - N/A   Overcast
6:55 AM 28.0 °F 20.0 °F 19.2 °F 70% 29.91 in 10.0 mi South 8.1 mph 16.1 mph N/A   Overcast
7:15 AM 28.0 °F 19.3 °F 18.5 °F 67% 29.91 in 10.0 mi South 9.2 mph - N/A   Overcast
7:35 AM 28.0 °F 20.8 °F 18.5 °F 67% 29.91 in 10.0 mi SSE 6.9 mph - N/A   Overcast
7:55 AM 28.0 °F 22.8 °F 18.3 °F 67% 29.91 in 10.0 mi South 4.6 mph - N/A   Overcast
8:15 AM 28.0 °F 20.0 °F 18.1 °F 66% 29.90 in 10.0 mi SSE 8.1 mph - N/A   Overcast
8:35 AM 28.0 °F 20.0 °F 18.3 °F 67% 29.89 in 7.0 mi South 8.1 mph 17.3 mph N/A   Overcast
8:55 AM 28.2 °F 20.2 °F 18.5 °F 67% 29.88 in 10.0 mi SE 8.1 mph - N/A   Overcast
9:15 AM 29.1 °F 21.3 °F 18.7 °F 65% 29.87 in 10.0 mi SSE 8.1 mph - N/A   Overcast
9:35 AM 30.6 °F 24.7 °F 19.6 °F 64% 29.87 in 10.0 mi South 5.8 mph - N/A   Overcast
9:55 AM 30.6 °F 25.8 °F 18.7 °F 61% 29.87 in 10.0 mi South 4.6 mph - N/A   Overcast
10:15 AM 32.0 °F 23.6 °F 21.6 °F 65% 29.86 in 10.0 mi South 10.4 mph - N/A   Overcast
10:35 AM 32.9 °F 25.9 °F 23.9 °F 69% 29.85 in 10.0 mi South 8.1 mph - N/A   Overcast
10:55 AM 32.9 °F 25.9 °F 25.2 °F 73% 29.85 in 10.0 mi South 8.1 mph - N/A   Overcast
11:15 AM 32.9 °F 24.7 °F 26.4 °F 77% 29.85 in 5.0 mi South 10.4 mph 19.6 mph N/A Snow Light Snow
11:35 AM 32.9 °F 22.8 °F 26.8 °F 78% 29.84 in 7.0 mi South 15.0 mph 18.4 mph N/A   Overcast
11:55 AM 32.9 °F 25.9 °F 27.7 °F 81% 29.83 in 5.0 mi South 8.1 mph 17.3 mph N/A Snow Light Snow
12:15 PM 32.9 °F 24.7 °F 28.4 °F 84% 29.82 in 5.0 mi South 10.4 mph - N/A Snow Light Snow
12:35 PM 32.9 °F 25.3 °F 29.3 °F 87% 29.81 in 3.0 mi South 9.2 mph 17.3 mph N/A Snow Light Snow
12:55 PM 32.9 °F 25.3 °F 29.7 °F 88% 29.80 in 4.0 mi South 9.2 mph - N/A Snow Light Snow
1:15 PM 32.9 °F 25.3 °F 29.7 °F 88% 29.79 in 4.0 mi South 9.2 mph - N/A Snow Light Snow
1:35 PM 32.9 °F 27.5 °F 29.8 °F 88% 29.79 in 7.0 mi South 5.8 mph - N/A   Overcast
1:55 PM 33.8 °F 27.7 °F 30.6 °F 88% 29.78 in 7.0 mi South 6.9 mph - N/A   Overcast
2:15 PM 34.5 °F 27.3 °F 31.1 °F 87% 29.77 in 10.0 mi South 9.2 mph - N/A   Overcast
2:35 PM 33.8 °F 26.4 °F 31.1 °F 90% 29.76 in 5.0 mi South 9.2 mph 17.3 mph N/A   Overcast
2:55 PM 32.9 °F 27.5 °F 30.9 °F 92% 29.75 in 4.0 mi South 5.8 mph - N/A   Overcast
3:15 PM 32.9 °F 25.3 °F 31.1 °F 93% 29.74 in 3.0 mi SSE 9.2 mph - N/A   Overcast
3:35 PM 32.9 °F 25.9 °F 31.5 °F 94% 29.74 in 3.0 mi South 8.1 mph - N/A   Overcast
3:55 PM 32.9 °F 27.5 °F 31.8 °F 96% 29.73 in 3.0 mi South 5.8 mph - N/A   Overcast
4:15 PM 32.9 °F 25.9 °F 32.0 °F 96% 29.72 in 3.0 mi South 8.1 mph - N/A   Overcast
4:35 PM 33.1 °F 26.1 °F 32.0 °F 96% 29.71 in 3.0 mi South 8.1 mph - N/A   Overcast
4:55 PM 33.6 °F 27.5 °F 32.5 °F 96% 29.71 in 3.0 mi SSE 6.9 mph - N/A   Overcast
5:15 PM 33.4 °F 28.1 °F 32.5 °F 96% 29.70 in 2.5 mi SSE 5.8 mph - N/A   Overcast
5:35 PM 33.3 °F 25.7 °F 32.5 °F 97% 29.70 in 2.5 mi SSE 9.2 mph - N/A   Overcast
5:55 PM 33.3 °F 27.1 °F 32.5 °F 97% 29.70 in 2.0 mi SSE 6.9 mph - N/A   Overcast
6:15 PM 33.3 °F 27.1 °F 32.9 °F 99% 29.69 in 2.0 mi SSE 6.9 mph - N/A   Overcast
6:35 PM 32.9 °F 25.9 °F 32.5 °F 99% 29.68 in 1.8 mi SSE 8.1 mph - N/A   Overcast
6:55 PM 32.9 °F 24.7 °F 32.7 °F 99% 29.67 in 1.8 mi SSE 10.4 mph - N/A   Overcast
7:15 PM 32.9 °F 25.3 °F 32.9 °F 100% 29.66 in 1.8 mi SSE 9.2 mph - N/A   Overcast
7:34 PM 33.3 °F 25.7 °F 33.1 °F 99% 29.65 in 1.8 mi SSE 9.2 mph - N/A Snow Light Snow
7:55 PM 32.9 °F 25.3 °F 32.5 °F 99% 29.64 in 4.0 mi SSE 9.2 mph - N/A Snow Light Snow
8:15 PM 32.9 °F 24.7 °F 32.7 °F 99% 29.64 in 5.0 mi SSE 10.4 mph - N/A Snow Light Snow
8:35 PM 32.9 °F 25.3 °F 32.5 °F 99% 29.63 in 4.0 mi SSE 9.2 mph - N/A Snow Light Snow
8:55 PM 33.1 °F 26.1 °F 32.9 °F 99% 29.61 in 5.0 mi SSE 8.1 mph - N/A   Overcast
9:15 PM 33.8 °F 26.4 °F 33.4 °F 99% 29.60 in 4.0 mi SSE 9.2 mph - N/A   Overcast
9:35 PM 34.0 °F 28.0 °F 33.8 °F 99% 29.59 in 4.0 mi SSE 6.9 mph - N/A   Overcast
9:55 PM 35.2 °F 27.1 °F 35.1 °F 99% 29.58 in 4.0 mi SSE 11.5 mph - N/A Rain Rain
10:15 PM 35.2 °F 28.8 °F 35.1 °F 99% 29.57 in 4.0 mi SSE 8.1 mph - N/A   Overcast
10:35 PM 35.2 °F 30.3 °F 35.1 °F 99% 29.56 in 3.0 mi SSE 5.8 mph - N/A Snow Light Snow
10:55 PM 35.2 °F 31.2 °F 35.1 °F 99% 29.55 in 3.0 mi SSE 4.6 mph - N/A Snow Light Snow
11:15 PM 35.2 °F 30.3 °F 35.1 °F 99% 29.56 in 3.0 mi South 5.8 mph - N/A Rain Light Rain
11:34 PM 35.2 °F 28.8 °F 35.1 °F 99% 29.56 in 1.5 mi South 8.1 mph - N/A Rain Light Rain
11:55 PM 35.2 °F 31.2 °F 35.1 °F 99% 29.55 in 3.0 mi SSE 4.6 mph - N/A   Overcast